Home   Weather   Bucharest   Past weeks
Flag for Romania

Past Weather in Bucharest, Romania — Yesterday and Last 2 Weeks

Now
46 °F

Clear.


Feels Like: 42 °F
Forecast: 62 / 35 °F
Wind: 8 mph from East

Location: Bucharest / Imh

Current Time: Apr 6, 2020 at 10:31:59 pm

Latest Report: Apr 6, 2020 at 10:00 pm


Visibility: 10 mi

Pressure: 30.57 "Hg

Humidity: 37%

Dew Point: 21 °F

Location of BucharestLocation

Past Weather in Bucharest — Graph

°F

Bucharest Temperature Yesterday

Maximum temperature yesterday: 63 °F (at 3:00 pm)
Minimum temperature yesterday: 41 °F (at 11:30 pm)
Average temperature yesterday: 53 °F

High & Low Weather Summary for the Past Weeks

 TemperatureHumidityPressure
High68 °F (Mar 29, 3:00 pm)100% (Mar 23, 5:30 am)30.57 "Hg (Mar 23, 5:30 am)
Low32 °F (Mar 23, 5:30 am)20% (Apr 5, 5:30 pm)29.68 "Hg (Mar 29, 5:00 pm)
Average46 °F48%30.13 "Hg
* Reported Mar 22 8:00 pm — Apr 6 9:30 pm, Bucharest. Weather by CustomWeather, © 2020

Note: Actual official high and low records may vary slightly from our data, if they occured in-between our weather recording intervals... More about our weather records

Bucharest Weather History for the Previous 24 Hours

Scroll right to see more
 ConditionsComfort  
Time TempWeatherWind HumidityBarometerVisibility
9:30 pm
Mon, Apr 6
46 °FClear.10 mph37%30.57 "Hg10 mi
9:00 pm48 °FClear.9 mph32%30.54 "Hg10 mi
8:30 pm48 °FClear.10 mph32%30.54 "Hg10 mi
8:00 pm54 °FClear.10 mph26%30.51 "Hg10 mi
7:30 pm55 °FSunny.13 mph24%30.51 "Hg10 mi
7:00 pm57 °FSunny.15 mph21%30.51 "Hg10 mi
6:30 pm59 °FPassing clouds.16 mph21%30.51 "HgN/A
6:00 pm59 °FPassing clouds.17 mph21%30.51 "HgN/A
5:30 pm59 °FRefreshingly cool.17 mph21%30.51 "HgN/A
5:00 pm61 °FRefreshingly cool.18 mph22%30.51 "HgN/A
4:30 pm61 °FPassing clouds.17 mph23%30.51 "HgN/A
4:00 pm61 °FSunny.17 mph22%30.51 "Hg10 mi
3:30 pm61 °FSunny.23 mph22%30.54 "Hg10 mi
3:00 pm59 °FSunny.20 mph21%30.54 "Hg10 mi
2:30 pm59 °FPassing clouds.16 mph21%30.54 "HgN/A
2:00 pm59 °FPassing clouds.18 mph23%30.54 "HgN/A
1:30 pm57 °FRefreshingly cool.17 mph21%30.54 "HgN/A
1:00 pm57 °FPassing clouds.17 mph21%30.57 "HgN/A
12:30 pm57 °FSunny.21 mph21%30.57 "Hg10 mi
12:00 pm55 °FSunny.21 mph23%30.57 "Hg10 mi
11:30 am54 °FCool.18 mph24%30.57 "HgN/A
11:00 am52 °FPassing clouds.17 mph26%30.57 "HgN/A
10:30 am52 °FSunny.18 mph26%30.57 "Hg10 mi
10:00 am50 °FPassing clouds.16 mph30%30.57 "HgN/A
9:30 am48 °FSunny.16 mph32%30.54 "Hg10 mi
9:00 am46 °FSunny.15 mph32%30.54 "Hg10 mi
8:30 am45 °FSunny.13 mph34%30.54 "Hg10 mi
8:00 am43 °FPassing clouds.12 mph34%30.51 "HgN/A
7:30 am41 °FSunny.10 mph39%30.51 "Hg10 mi
7:00 am41 °FSunny.8 mph39%30.51 "Hg10 mi
6:30 am41 °FClear.8 mph39%30.48 "Hg10 mi
6:00 am41 °FClear.10 mph39%30.48 "Hg10 mi
5:30 am41 °FQuite cool.12 mph39%30.48 "HgN/A
5:00 am43 °FClear.12 mph36%30.45 "Hg10 mi
4:30 am43 °FClear.14 mph34%30.45 "Hg10 mi
4:00 am45 °FClear.14 mph31%30.45 "Hg10 mi
3:30 am45 °FClear.14 mph31%30.42 "Hg10 mi
3:00 am46 °FClear.14 mph29%30.42 "Hg10 mi
2:30 am46 °FClear.13 mph29%30.42 "Hg10 mi
2:00 am45 °FClear.10 mph34%30.42 "Hg10 mi
1:30 am45 °FClear.7 mph37%30.42 "Hg10 mi
1:00 am43 °FClear.6 mph42%30.42 "Hg10 mi
12:30 am45 °FClear.6 mph39%30.42 "Hg10 mi
12:00 am45 °FClear.3 mph39%30.42 "Hg10 mi
11:30 pm
Sun, Apr 5
41 °FClear.3 mph45%30.39 "Hg10 mi
11:00 pm45 °FClear.5 mph39%30.39 "Hg10 mi
10:30 pm46 °FClear.6 mph37%30.39 "Hg10 mi
10:00 pm50 °FClear.9 mph32%30.36 "Hg10 mi
Weather by CustomWeather, © 2020

See weather overview

Advertising